This is the latest recevied weather packets stored in our database for station/object K4DNM. If no packets are shown the sender has not sent any weather packets the latest 10 day(s).
| Time | Temp. | Humidity | Pressure | Rain* | Wind** | Luminosity | Snow |
|---|---|---|---|---|---|---|---|
| 1778029153 | 21.67° C | 57% | 1014.2 hPa | 0 mm | - | 0 W/m² | - |
| 1778028854 | 22.22° C | 57% | 1014.1 hPa | 0 mm | - | 0 W/m² | - |
| 1778028612 | 22.22° C | 56% | 1014 hPa | 0 mm | - | 0 W/m² | - |
| 1778028253 | 22.22° C | 56% | 1013.9 hPa | 0 mm | - | 0 W/m² | - |
| 1778027953 | 22.22° C | 55% | 1013.9 hPa | 0 mm | - | 0 W/m² | - |
| 1778027654 | 22.22° C | 54% | 1013.8 hPa | 0 mm | - | 0 W/m² | - |
| 1778027352 | 22.78° C | 54% | 1013.7 hPa | 0 mm | - | 0 W/m² | - |
| 1778027050 | 22.78° C | 53% | 1013.7 hPa | 0 mm | - | 0 W/m² | - |
| 1778026750 | 22.78° C | 53% | 1013.6 hPa | 0 mm | - | 0 W/m² | - |
| 1778026451 | 23.33° C | 53% | 1013.7 hPa | 0 mm | - | 0 W/m² | - |
| 1778026149 | 23.33° C | 53% | 1013.6 hPa | 0 mm | - | 0 W/m² | - |
| 1778025852 | 23.33° C | 53% | 1013.5 hPa | 0 mm | - | 2 W/m² | - |
| 1778025551 | 23.33° C | 53% | 1013.4 hPa | 0 mm | - | 3 W/m² | - |
| 1778025251 | 23.33° C | 52% | 1013.4 hPa | 0 mm | - | 6 W/m² | - |
| 1778024952 | 23.89° C | 52% | 1013.4 hPa | 0 mm | - | 9 W/m² | - |
| 1778024652 | 23.89° C | 52% | 1013.3 hPa | 0 mm | - | 12 W/m² | - |
| 1778024352 | 23.89° C | 51% | 1013.3 hPa | 0 mm | - | 18 W/m² | - |
| 1778024051 | 23.89° C | 51% | 1013.3 hPa | 0 mm | - | 23 W/m² | - |
| 1778023762 | 24.44° C | 51% | 1013.4 hPa | 0 mm | - | 29 W/m² | - |
| 1778023445 | 24.44° C | 50% | 1013.2 hPa | 0 mm | - | 37 W/m² | - |
| 1778023145 | 24.44° C | 50% | 1013.2 hPa | 0 mm | - | 39 W/m² | - |
| 1778022844 | 24.44° C | 51% | 1013.3 hPa | 0 mm | - | 32 W/m² | - |
| 1778022545 | 24.44° C | 50% | 1013.2 hPa | 0 mm | - | 26 W/m² | - |
| 1778022244 | 24.44° C | 50% | 1013.2 hPa | 0 mm | - | 23 W/m² | - |
| 1778021945 | 24.44° C | 50% | 1013.2 hPa | 0 mm | - | 38 W/m² | - |
* Rain latest hour (hover to see other rain measurements)
** Current wind speed in m/s (hover to see current wind gust speed)